Wetbulb
39.63 39.19 40.19 41.92 42.06 42.38 42.62 42.16 42.93 43.11 42.94 43.03 42.30 42.05 42.17 42.80 43.59 44.65 42.47 50.69 53.52 55.49 57.48 63.56 62.17 61.62 62.16 65.66 67.05 67.99 68.54 69.23 69.99 70.85 71.58 71.42 70.83 71.46 71.35 71.39 71.21 71.22 71.44
38.21 38.89 39.47 40.50 40.53 43.37 42.33 42.43 42.44 42.98 42.85 43.10 42.45 42.50 41.92 42.43 43.22 43.51 44.06 43.21 51.73 54.23 56.26 60.97 61.05 61.03 62.10 64.24 66.50 67.07 67.34 67.74 68.01 69.55 70.62 70.93 70.75 70.63 70.97 70.88 70.92 71.03 71.07
37.51 38.46 38.64 38.92 41.95 41.21 43.15 42.58 42.42 42.38 43.41 43.97 42.64 42.59 42.25 41.96 42.54 42.71 43.47 43.97 44.14 50.42 54.21 59.32 60.31 60.57 62.16 64.12 64.16 63.55 65.36 65.14 66.47 68.22 68.98 69.65 70.34 70.43 70.27 70.69 70.73 70.61 70.87
37.68 37.89 39.70 40.32 41.13 40.75 40.71 41.82 40.88 42.30 42.00 42.36 42.25 42.11 42.42 41.46 41.44 41.97 43.19 43.24 42.93 44.06 49.16 56.85 59.05 59.22 61.27 62.48 63.23 62.70 61.55 60.85 61.27 66.54 67.39 67.55 68.76 69.54 69.77 70.03 70.32 70.45 70.41
37.63 37.79 40.49 40.22 40.30 40.55 39.48 41.47 40.72 41.51 40.89 41.27 42.15 42.02 41.72 42.21 40.90 42.75 41.45 42.64 42.97 43.83 45.36 51.90 58.57 59.38 59.32 61.94 62.13 60.40 59.37 61.54 61.75 60.77 63.82 66.70 67.38 67.25 67.71 68.02 68.85 69.49 69.74
37.26 37.71 38.05 38.20 39.26 39.91 39.78 38.95 39.73 41.28 40.74 41.37 42.11 42.15 42.08 41.67 41.54 39.90 40.39 42.67 42.32 43.15 43.64 46.90 48.67 52.98 58.90 60.17 60.40 60.14 58.80 58.22 58.99 61.04 61.51 61.25 64.51 66.58 66.50 65.93 66.14 67.77 69.24
37.89 37.59 37.09 37.63 38.86 39.95 40.27 38.97 39.49 40.00 40.59 41.76 39.80 40.87 38.57 39.09 39.45 39.18 40.02 40.14 41.06 42.35 42.52 46.15 47.20 48.59 51.24 57.99 57.11 57.20 57.66 57.95 58.47 58.69 61.75 62.72 61.49 60.64 62.67 66.78 65.75 66.27 67.72
37.46 37.61 37.54 37.20 39.63 40.49 40.19 39.92 38.92 38.80 40.21 41.62 38.95 38.68 34.08 35.14 38.36 38.98 38.54 40.50 40.25 41.05 42.18 44.91 46.79 46.76 46.91 47.50 49.17 56.42 56.35 56.22 58.21 58.75 60.34 61.56 62.59 62.68 61.57 61.75 64.63 66.16 65.97
37.35 36.95 38.15 38.61 39.99 41.23 39.81 39.58 39.84 39.39 38.67 40.04 41.52 39.33 33.79 33.19 36.54 39.31 38.89 39.28 39.73 39.41 39.67 42.20 45.67 46.99 46.67 46.42 50.86 53.70 56.06 53.59 53.85 56.15 59.16 60.30 60.95 62.69 63.55 62.64 62.88 63.13 64.14
36.99 37.90 41.12 41.70 41.32 41.21 40.13 39.75 40.54 40.31 40.22 38.76 40.66 41.75 40.74 39.93 35.80 35.10 38.04 38.53 39.98 40.52 39.14 39.18 43.11 46.84 47.37 46.85 49.84 51.86 54.43 56.24 53.91 53.01 54.87 57.72 59.69 62.23 63.28 63.31 63.54 63.56 63.01
36.58 39.60 42.09 42.61 41.83 41.24 40.84 40.06 40.19 40.81 41.92 41.01 40.70 40.42 39.90 39.90 38.77 37.15 35.19 38.05 38.71 39.40 39.76 39.91 42.76 45.16 46.86 46.44 45.35 48.50 54.83 57.44 55.49 53.39 53.18 54.30 56.19 58.82 61.88 63.22 63.07 64.05 64.42
35.40 39.30 42.02 42.31 42.06 40.92 40.77 40.87 41.17 41.40 42.15 41.94 41.82 41.39 39.63 38.10 38.04 37.81 37.21 38.10 37.59 38.00 39.80 40.09 41.14 44.10 45.99 45.34 47.90 50.46 55.19 56.63 55.31 52.93 52.63 53.44 54.75 56.52 60.41 61.92 62.56 62.77 63.16
34.69 38.34 41.23 41.29 41.78 42.18 41.94 41.71 41.56 41.69 42.61 40.99 40.85 41.14 40.88 40.18 40.47 40.18 37.97 38.27 37.59 39.70 39.73 40.49 41.61 43.55 46.19 43.51 46.01 51.68 55.35 55.89 54.26 53.06 52.79 53.71 55.06 56.55 58.91 59.78 60.27 61.33 61.54
34.29 37.30 39.63 40.74 40.39 40.92 41.25 42.45 41.96 42.71 42.35 41.08 40.97 41.25 40.40 38.94 39.13 38.36 38.51 37.95 34.57 37.93 38.62 38.15 39.96 42.22 43.56 46.60 48.79 52.60 50.43 55.30 53.76 53.83 53.30 54.10 55.90 56.29 57.29 58.05 58.72 59.06 58.46
36.43 37.07 37.47 37.96 38.65 38.57 39.54 40.80 40.69 40.27 42.18 42.22 41.81 41.91 40.82 41.46 41.36 40.91 37.30 36.07 34.71 33.33 35.74 37.40 38.92 40.66 41.85 44.31 48.74 43.94 43.65 48.90 52.66 53.62 54.32 53.32 54.23 54.89 55.62 55.42 55.32 55.36 55.68
34.67 35.55 36.55 37.00 37.49 36.85 37.24 37.23 38.04 38.82 39.68 38.48 40.63 40.28 41.43 41.33 40.24 39.53 40.72 40.01 37.03 33.78 33.97 36.71 37.63 40.99 42.41 44.10 45.78 43.62 44.11 47.63 49.84 51.91 53.61 53.45 52.93 52.82 53.06 53.13 52.86 52.39 52.36
34.08 34.67 35.43 36.28 37.14 38.38 36.25 36.00 36.06 36.36 35.98 37.42 38.91 38.19 38.57 39.82 40.97 38.76 37.62 39.67 38.14 38.55 35.06 35.59 36.12 37.89 40.16 41.50 43.22 43.18 43.46 42.85 42.68 49.56 51.33 53.41 53.04 52.64 52.38 51.56 51.43 51.11 50.73
34.31 34.39 34.57 34.95 37.16 39.36 39.40 38.23 36.41 37.10 37.31 37.40 38.09 37.68 39.06 40.37 39.88 40.89 37.02 38.64 39.53 38.80 36.83 31.15 32.97 35.45 35.35 39.00 40.81 41.39 43.06 44.20 42.19 46.53 49.76 51.78 53.16 52.64 52.28 51.65 51.05 50.62 50.16
33.73 34.07 34.28 34.22 35.72 38.30 39.61 37.14 38.51 37.21 35.54 36.26 36.12 35.65 37.84 38.94 38.97 40.19 39.89 40.03 39.15 38.77 39.93 38.18 35.99 35.69 35.06 35.82 37.30 39.83 42.08 40.12 42.45 46.36 47.48 48.93 52.78 51.63 51.57 51.38 51.32 50.86 50.12
33.57 33.68 34.07 34.38 37.07 39.05 39.16 35.72 35.46 36.22 35.06 34.59 35.57 36.33 38.09 38.75 38.89 41.57 41.43 40.73 38.22 38.78 39.04 38.59 37.41 33.44 33.09 34.71 34.90 34.82 35.37 37.92 39.56 42.31 44.02 46.45 48.58 50.96 50.71 51.08 50.72 50.83 50.18
33.78 34.03 34.22 34.80 35.88 39.11 39.25 35.22 33.65 33.79 33.00 32.90 33.51 35.25 37.02 40.41 41.97 43.25 40.86 39.71 39.93 39.35 38.85 37.86 36.31 35.63 36.04 35.23 33.51 34.99 34.00 35.29 36.82 38.18 36.14 38.16 39.14 40.99 45.13 49.99 49.46 50.74 50.53
33.12 33.12 33.18 33.53 34.18 38.08 43.41 41.58 36.21 33.03 33.22 32.20 31.71 32.60 34.48 40.25 37.53 40.77 41.81 42.46 41.86 39.39 38.19 38.32 37.60 36.22 35.39 34.07 34.63 34.36 34.56 35.43 34.13 36.50 34.93 33.79 36.26 37.76 38.92 40.76 46.98 49.44 49.93
32.81 32.48 32.72 33.07 33.26 34.74 44.59 42.82 40.53 33.18 32.43 31.45 31.38 32.05 34.85 36.24 37.35 33.66 37.26 38.55 38.45 41.14 41.47 37.60 36.19 36.13 33.11 33.47 33.65 32.71 32.73 33.12 34.01 33.83 33.16 33.00 32.41 34.31 35.74 38.29 43.12 46.13 47.59
32.71 32.65 32.85 32.87 32.98 35.46 43.70 43.47 41.13 33.57 31.98 31.89 32.06 32.18 35.58 36.35 38.22 33.24 31.55 30.90 31.28 32.57 37.10 38.36 37.35 35.14 34.43 33.41 35.19 34.90 33.38 32.87 33.18 34.21 37.22 32.78 31.81 27.73 32.93 34.62 41.26 42.98 44.70
32.31 32.44 32.95 32.42 32.66 33.10 42.47 42.80 37.83 33.98 33.26 31.53 32.91 33.00 36.23 37.77 42.09 40.34 31.34 32.80 30.34 29.38 36.35 39.91 39.79 39.78 39.40 38.99 38.25 32.27 33.20 33.65 32.48 33.02 36.15 35.45 33.87 34.88 31.15 32.19 34.76 41.36 42.79
32.88 33.28 32.81 32.15 36.21 32.20 39.93 41.86 39.43 34.23 32.26 31.58 32.15 33.11 38.61 39.93 41.52 41.66 33.02 35.09 32.58 31.77 28.88 28.09 28.88 31.31 34.86 33.86 38.46 31.50 32.53 32.09 31.70 32.90 36.37 34.49 34.74 34.78 32.63 35.49 28.04 33.26 34.30
MSLP
1022.67 1022.18 1021.67 1021.12 1020.56 1019.97 1019.49 1018.95 1018.48 1017.89 1017.35 1016.90 1016.54 1016.35 1015.80 1015.33 1014.93 1014.57 1014.13 1013.35 1012.62 1011.97 1011.41 1010.63 1010.69 1010.93 1011.00 1010.91 1011.17 1011.42 1011.55 1011.59 1011.67 1011.72 1011.99 1012.33 1012.75 1013.01 1013.38 1013.78 1014.15 1014.53 1014.84
1022.70 1022.17 1021.58 1021.00 1020.48 1019.84 1019.34 1018.76 1018.30 1017.69 1017.07 1016.58 1016.15 1015.76 1015.46 1014.99 1014.52 1014.11 1013.74 1013.19 1012.50 1011.68 1011.08 1010.49 1010.46 1010.62 1010.65 1010.55 1011.08 1011.21 1011.49 1011.65 1011.44 1011.47 1011.72 1011.96 1012.28 1012.68 1012.94 1013.39 1013.77 1014.14 1014.57
1022.36 1021.96 1021.36 1020.80 1020.08 1019.74 1019.15 1018.63 1017.96 1017.40 1016.78 1016.10 1015.74 1015.38 1014.96 1014.58 1014.07 1013.60 1013.40 1013.01 1012.43 1011.71 1011.14 1010.35 1010.28 1010.34 1010.33 1010.84 1011.07 1011.26 1011.58 1011.74 1011.49 1011.35 1011.51 1011.67 1011.96 1012.27 1012.57 1013.00 1013.40 1013.76 1014.13
1021.99 1021.58 1020.90 1020.26 1019.71 1019.43 1019.06 1018.24 1017.76 1017.12 1016.53 1016.03 1015.38 1015.03 1014.76 1014.06 1013.70 1013.35 1013.05 1012.84 1012.34 1011.72 1011.17 1010.59 1010.13 1010.18 1010.24 1010.38 1010.99 1011.30 1011.66 1011.91 1011.76 1011.62 1011.66 1011.58 1011.79 1012.04 1012.30 1012.74 1013.08 1013.29 1013.62
1021.60 1021.28 1020.62 1020.10 1019.67 1019.20 1018.76 1018.12 1017.48 1017.02 1016.44 1015.77 1015.12 1014.49 1014.25 1013.77 1013.41 1012.96 1012.78 1012.54 1012.17 1011.66 1011.21 1010.81 1010.24 1010.10 1010.20 1010.18 1010.58 1011.12 1011.49 1011.98 1012.13 1012.00 1011.88 1011.95 1011.95 1012.14 1012.40 1012.60 1012.84 1013.10 1013.21
1021.22 1020.78 1020.34 1019.95 1019.51 1018.98 1018.34 1017.97 1017.39 1016.64 1016.10 1015.47 1014.83 1014.20 1013.80 1013.53 1013.20 1012.73 1012.38 1012.20 1011.99 1011.50 1011.00 1010.78 1010.43 1010.45 1010.21 1010.31 1010.45 1011.01 1011.42 1011.52 1011.69 1011.77 1012.02 1012.33 1012.18 1012.33 1012.51 1012.70 1012.82 1012.87 1012.97
1020.86 1020.40 1020.09 1019.64 1019.04 1018.50 1018.03 1017.71 1017.23 1016.48 1015.59 1015.10 1014.70 1013.76 1013.27 1012.72 1012.45 1012.30 1011.98 1011.76 1011.63 1011.35 1010.89 1010.70 1010.52 1010.52 1010.45 1010.46 1010.78 1011.06 1011.40 1011.55 1011.74 1011.94 1012.35 1012.22 1012.35 1012.39 1012.45 1012.55 1012.77 1012.77 1012.66
1020.73 1020.15 1019.67 1019.32 1018.57 1017.98 1017.75 1017.33 1017.03 1016.39 1015.50 1014.95 1014.57 1014.00 1013.47 1012.79 1012.17 1011.84 1011.68 1011.60 1011.43 1011.34 1010.86 1010.38 1010.42 1010.56 1010.66 1010.88 1011.08 1011.44 1011.78 1011.95 1011.91 1011.83 1012.03 1012.09 1011.98 1012.18 1012.33 1012.46 1012.55 1012.65 1012.86
1020.65 1020.04 1019.40 1018.77 1018.14 1017.67 1017.40 1017.07 1016.74 1016.19 1015.40 1014.80 1014.51 1014.19 1013.82 1013.45 1012.96 1012.15 1011.98 1011.77 1011.53 1011.23 1011.04 1010.52 1010.34 1010.72 1010.74 1010.91 1011.35 1011.64 1011.93 1012.08 1012.34 1012.42 1012.46 1011.77 1011.87 1011.82 1012.06 1012.19 1012.50 1012.50 1012.73
1020.61 1020.00 1019.03 1018.07 1017.57 1017.40 1017.12 1016.89 1016.45 1015.93 1015.21 1014.56 1014.15 1014.00 1013.90 1013.76 1013.59 1013.18 1012.38 1012.10 1011.71 1011.41 1011.39 1011.11 1010.77 1010.66 1010.86 1011.18 1011.32 1011.76 1011.92 1012.02 1012.27 1012.49 1012.51 1012.27 1012.18 1012.00 1011.77 1011.74 1012.10 1012.22 1012.21
1020.76 1019.82 1019.09 1018.14 1017.70 1017.40 1017.09 1016.78 1016.17 1015.57 1014.93 1014.43 1013.74 1013.84 1013.88 1013.76 1013.87 1013.77 1013.37 1012.96 1012.21 1011.96 1011.61 1011.32 1011.12 1010.94 1010.76 1011.09 1011.59 1011.63 1011.58 1011.94 1012.10 1012.34 1012.51 1012.56 1012.34 1012.16 1012.06 1011.70 1011.57 1011.56 1011.97
1020.88 1020.02 1019.22 1018.39 1017.86 1017.50 1017.02 1016.47 1015.95 1015.45 1014.84 1014.38 1014.14 1014.06 1014.00 1013.97 1013.88 1013.88 1013.59 1013.33 1013.11 1012.41 1011.82 1011.69 1011.42 1011.16 1010.94 1010.95 1011.13 1011.50 1011.41 1011.76 1012.08 1012.26 1012.44 1012.59 1012.42 1012.17 1011.91 1011.69 1011.26 1011.57 1011.78
1020.98 1020.22 1019.36 1018.77 1018.17 1017.56 1016.87 1016.31 1015.86 1015.39 1014.83 1014.60 1014.45 1014.28 1014.17 1014.12 1014.18 1013.99 1013.92 1013.61 1013.45 1012.95 1012.32 1011.98 1012.00 1011.71 1011.21 1011.13 1011.38 1011.33 1011.45 1011.71 1011.97 1012.04 1012.19 1012.38 1012.18 1011.84 1011.64 1011.49 1011.69 1011.80 1012.01
1021.33 1020.49 1019.76 1019.16 1018.52 1017.86 1017.22 1016.48 1016.13 1015.53 1014.96 1014.81 1014.63 1014.42 1014.37 1014.31 1014.29 1014.30 1014.22 1014.06 1013.94 1013.71 1013.42 1013.23 1012.67 1012.34 1012.16 1011.58 1011.95 1011.52 1011.64 1011.72 1011.97 1011.86 1011.93 1012.21 1012.31 1011.83 1011.49 1011.87 1011.93 1012.14 1012.49
1021.35 1020.65 1020.14 1019.64 1018.99 1018.29 1017.73 1017.12 1016.70 1016.23 1015.70 1015.31 1014.99 1014.65 1014.52 1014.23 1014.16 1014.19 1014.35 1014.39 1014.37 1014.29 1014.01 1013.59 1013.30 1012.99 1012.77 1012.66 1012.31 1012.31 1012.69 1012.32 1011.97 1011.63 1011.79 1012.30 1012.56 1012.27 1012.24 1012.31 1012.40 1012.60 1012.74
1021.46 1020.92 1020.35 1019.84 1019.31 1018.71 1018.29 1017.87 1017.40 1016.90 1016.37 1016.05 1015.66 1015.16 1014.74 1014.53 1014.35 1014.34 1014.35 1014.45 1014.60 1014.65 1014.62 1014.31 1014.01 1013.82 1013.66 1013.27 1012.97 1012.97 1012.82 1012.47 1012.06 1011.93 1011.96 1012.35 1012.60 1012.72 1012.61 1012.53 1012.40 1012.70 1012.70
1021.67 1021.17 1020.61 1020.08 1019.56 1018.95 1018.55 1018.14 1017.65 1017.29 1016.90 1016.49 1016.04 1015.64 1015.17 1014.79 1014.46 1014.48 1014.42 1014.39 1014.50 1014.63 1014.71 1014.55 1014.48 1014.17 1013.99 1013.75 1013.49 1013.09 1012.98 1013.00 1012.67 1012.27 1012.27 1012.28 1012.63 1012.77 1012.87 1012.73 1012.57 1012.78 1013.19
1021.78 1021.35 1020.82 1020.26 1019.69 1019.17 1018.68 1018.35 1018.02 1017.53 1017.18 1016.75 1016.37 1015.91 1015.36 1014.87 1014.67 1014.33 1014.44 1014.35 1014.31 1014.40 1014.59 1014.80 1014.74 1014.44 1014.28 1013.95 1013.89 1013.56 1013.28 1013.11 1012.95 1012.56 1012.29 1012.05 1012.34 1012.59 1012.80 1012.74 1012.98 1012.99 1013.15
1022.06 1021.43 1020.95 1020.44 1019.89 1019.35 1018.80 1018.37 1018.11 1017.85 1017.59 1017.24 1016.88 1016.42 1015.76 1015.27 1014.76 1014.42 1014.22 1014.09 1014.16 1014.13 1014.21 1014.39 1014.50 1014.50 1014.34 1014.13 1014.00 1013.58 1013.63 1013.42 1012.85 1012.73 1012.41 1012.26 1011.96 1012.38 1012.58 1012.66 1012.86 1012.97 1013.10
1022.24 1021.63 1021.12 1020.61 1020.01 1019.49 1018.92 1018.64 1018.38 1018.14 1017.88 1017.54 1017.14 1016.70 1016.07 1015.37 1014.79 1014.24 1013.94 1013.64 1013.90 1013.95 1013.98 1014.05 1014.24 1014.54 1014.53 1014.28 1014.22 1014.15 1013.79 1013.35 1013.07 1012.82 1012.57 1012.39 1012.14 1011.88 1012.11 1012.34 1012.50 1012.73 1013.08
1022.49 1022.07 1021.43 1020.83 1020.10 1019.53 1018.85 1018.69 1018.47 1018.35 1018.23 1017.89 1017.37 1016.95 1016.40 1015.80 1015.10 1014.37 1014.34 1014.16 1014.02 1013.87 1013.88 1014.02 1014.21 1014.34 1014.48 1014.52 1014.56 1014.40 1014.25 1013.82 1013.54 1013.28 1012.99 1012.72 1012.44 1011.98 1011.81 1011.82 1012.22 1012.38 1012.71
1022.45 1022.08 1021.70 1021.16 1020.45 1019.60 1018.83 1018.66 1018.64 1018.44 1018.26 1018.15 1017.81 1017.14 1016.70 1016.25 1015.89 1015.20 1014.79 1014.60 1014.23 1014.00 1013.92 1013.97 1014.13 1014.24 1014.53 1014.65 1014.46 1014.30 1014.23 1014.13 1014.02 1013.62 1013.54 1013.12 1012.82 1012.32 1012.31 1012.10 1011.87 1011.87 1012.06
1022.49 1022.09 1021.71 1021.35 1020.83 1019.99 1018.87 1018.66 1018.70 1018.59 1018.34 1018.10 1017.79 1017.33 1016.77 1016.41 1016.02 1015.68 1015.32 1015.06 1014.80 1014.35 1014.10 1014.39 1014.32 1014.39 1014.58 1014.48 1014.36 1014.25 1014.11 1014.00 1013.72 1013.22 1013.47 1013.37 1013.16 1012.90 1012.58 1012.34 1012.25 1012.09 1011.91
1022.78 1022.42 1022.04 1021.63 1021.15 1020.41 1019.33 1018.74 1018.72 1018.64 1018.47 1018.13 1017.68 1017.23 1016.73 1016.26 1015.79 1015.57 1015.49 1015.46 1015.32 1014.95 1014.46 1014.23 1014.17 1014.16 1014.14 1014.09 1014.07 1013.98 1013.77 1013.62 1013.36 1012.96 1012.86 1013.12 1013.00 1012.83 1012.43 1012.31 1012.22 1012.13 1011.92
1023.04 1022.74 1022.39 1021.87 1021.28 1020.64 1019.72 1018.94 1018.85 1018.66 1018.53 1018.28 1017.74 1017.08 1016.57 1015.99 1015.19 1015.29 1015.47 1015.42 1015.40 1015.14 1014.73 1014.18 1013.84 1013.65 1013.51 1013.58 1013.43 1013.80 1013.75 1013.52 1013.23 1012.77 1012.56 1012.53 1012.32 1012.14 1011.84 1011.76 1011.77 1011.63 1011.47
1023.23 1022.96 1022.42 1022.01 1021.78 1021.08 1019.82 1018.89 1018.57 1018.51 1018.47 1018.24 1017.70 1017.21 1016.62 1015.74 1015.26 1015.01 1015.23 1015.32 1015.30 1015.18 1014.95 1014.59 1014.23 1013.86 1013.75 1013.78 1013.41 1013.83 1013.75 1013.47 1013.22 1012.67 1012.36 1012.48 1012.32 1012.34 1011.89 1011.29 1011.31 1011.24 1011.23
Wind_Speed
6 4 5 5 7 7 5 6 7 8 8 10 7 7 9 8 8 5 4 18 18 20 21 20 16 15 14 15 13 13 13 14 16 17 15 16 17 17 15 15 16 15 16
5 4 5 6 5 7 9 7 7 8 7 8 9 9 8 8 8 6 5 6 19 19 18 18 15 14 13 13 13 12 10 8 7 19 16 17 17 17 15 16 15 15 17
6 6 5 6 6 6 10 7 7 8 8 8 8 9 7 8 7 6 5 5 8 17 18 19 15 15 12 10 7 4 7 7 6 10 13 15 16 16 16 15 16 16 16
7 7 6 7 6 5 7 7 7 7 7 8 7 8 8 7 6 5 5 5 6 6 11 16 14 13 14 11 9 7 5 3 2 4 7 4 10 13 17 16 16 17 17
6 6 6 7 8 6 6 8 7 8 8 8 8 8 6 7 7 8 7 6 6 6 4 10 14 13 14 13 12 8 6 8 5 3 5 8 6 5 5 6 11 18 18
7 5 6 6 6 7 8 7 10 8 9 7 9 9 8 7 8 6 7 6 5 7 6 5 4 5 11 14 12 11 9 8 6 6 6 7 9 11 8 5 3 7 18
8 7 6 7 6 6 8 10 8 9 7 7 5 5 6 8 8 5 5 4 5 6 6 3 3 2 3 8 6 5 7 8 9 9 12 10 9 7 9 14 6 4 8
10 9 10 9 10 6 9 7 7 8 7 4 4 4 4 4 5 4 3 4 5 3 5 3 2 4 3 2 2 6 4 9 11 10 12 12 12 10 10 9 13 10 8
11 11 11 10 10 7 7 6 7 9 7 6 6 4 2 3 7 3 5 4 4 1 4 5 0 1 3 4 4 4 6 5 6 10 15 13 10 14 13 11 11 11 14
12 11 14 12 7 6 5 5 7 7 8 6 4 5 3 3 2 5 4 5 6 7 5 3 5 2 3 2 8 9 10 9 8 9 12 13 14 16 16 14 14 13 13
10 10 14 13 7 5 5 6 8 8 6 5 3 1 1 1 2 2 3 6 4 4 3 3 3 3 3 4 3 7 11 11 8 7 8 12 15 16 16 19 17 14 15
6 11 13 11 7 5 6 6 7 8 7 4 2 1 2 2 3 3 2 2 5 4 3 4 6 2 2 1 7 12 14 12 10 6 5 11 14 16 18 17 15 10 5
7 8 12 11 9 8 9 8 7 7 6 3 4 3 2 1 2 2 3 2 3 3 3 3 6 7 6 3 3 8 11 11 9 5 4 9 12 13 14 7 7 9 5
6 7 9 10 11 11 11 11 8 8 5 4 5 2 2 2 1 1 2 2 3 2 2 3 3 8 7 6 9 4 2 11 8 6 4 6 8 4 5 7 10 11 10
6 8 8 8 7 8 9 10 8 10 8 7 7 5 3 3 2 1 0 1 1 1 1 4 4 6 7 5 8 8 5 11 7 7 4 2 6 5 7 8 8 8 10
7 7 8 9 8 6 7 9 7 9 8 6 6 8 5 3 3 3 1 1 1 2 1 1 3 4 7 7 7 5 6 10 11 7 6 6 6 6 6 9 9 7 8
6 7 8 8 8 7 5 6 7 8 7 7 7 7 6 6 4 2 2 1 1 1 2 2 1 1 1 4 7 5 4 4 4 10 8 9 9 8 7 7 9 8 8
6 6 6 7 9 9 6 5 7 10 10 10 10 10 9 6 5 4 2 3 3 2 2 3 2 2 2 2 3 4 4 3 4 6 10 9 11 11 10 8 9 9 9
7 7 6 7 8 10 7 4 2 6 6 7 7 8 10 9 7 4 4 3 2 2 3 3 2 2 2 1 3 2 2 5 2 6 7 11 13 12 10 9 9 9 9
6 7 7 6 6 9 4 6 6 6 6 6 6 6 9 10 10 5 7 4 3 3 2 1 1 1 1 2 1 2 3 2 3 1 5 7 9 13 14 15 11 9 10
5 6 8 9 9 8 3 4 5 5 6 7 7 6 8 14 20 15 6 8 6 3 2 2 2 1 1 1 2 2 2 3 3 2 3 3 3 3 5 14 8 12 11
6 5 6 7 9 8 14 14 7 5 5 5 6 7 5 9 11 17 16 11 8 4 5 2 2 2 1 1 2 1 1 1 4 0 1 4 3 3 3 3 8 13 13
5 6 6 6 8 10 16 14 11 4 4 4 5 6 6 5 5 4 10 11 10 11 7 2 1 1 2 2 1 1 3 3 4 3 2 3 2 3 2 4 10 11 12
6 5 6 6 6 8 19 14 12 5 5 5 4 5 5 7 7 4 4 6 6 5 4 1 1 3 4 4 3 3 3 3 3 3 4 3 2 3 3 3 11 15 16
5 5 4 7 6 7 18 16 9 5 4 6 6 7 6 6 11 5 5 6 6 5 7 9 7 6 6 5 5 1 3 2 2 2 2 2 2 2 3 3 5 17 18
4 4 6 6 10 7 14 15 9 3 4 4 6 6 12 10 14 12 4 1 3 3 4 6 5 6 6 6 7 0 3 3 4 2 2 3 2 2 4 1 2 3 4
Wind_Direction
320 315 314 307 322 303 295 293 296 293 294 296 287 283 286 288 289 296 286 302 304 289 286 241 232 241 241 241 241 235 239 246 240 225 216 208 207 205 203 203 205 204 197
310 298 310 309 306 323 308 299 286 295 283 288 291 289 285 279 282 295 303 307 307 304 287 260 230 241 239 245 229 241 226 240 252 221 215 212 208 210 203 202 202 203 202
307 295 309 305 300 303 312 307 300 296 301 290 287 289 288 277 280 277 304 302 306 302 293 272 241 234 228 207 202 208 226 249 246 216 204 207 212 211 207 204 203 202 202
301 306 304 298 307 299 301 299 300 299 294 295 285 291 289 275 269 286 286 304 304 298 293 287 257 235 233 210 199 188 179 256 275 235 202 199 216 215 213 213 210 205 202
296 290 305 307 310 292 303 309 308 304 300 299 288 281 283 293 288 285 278 282 295 304 288 281 256 247 238 217 198 199 210 203 215 235 235 222 205 159 168 201 219 219 209
296 301 307 294 295 300 306 309 307 294 285 290 290 288 283 277 270 251 255 265 280 290 292 278 273 290 220 246 212 208 224 240 246 218 246 237 237 216 204 204 228 260 225
314 310 301 291 279 295 306 310 301 308 300 294 302 272 284 267 266 233 240 247 277 285 284 299 223 213 225 198 224 226 249 248 250 257 224 231 228 231 239 231 214 265 255
308 313 309 300 295 295 297 294 301 305 293 272 284 300 312 328 338 332 237 240 256 291 290 322 194 209 153 103 152 218 255 281 281 266 257 243 239 236 236 244 233 238 275
315 310 311 304 303 308 302 311 299 302 318 314 299 289 301 341 327 344 4 23 -0 292 333 313 122 214 190 165 194 201 189 213 267 287 292 283 292 246 227 229 237 239 227
319 321 332 319 295 321 320 312 312 300 283 292 266 261 252 319 350 326 344 344 360 41 19 334 326 209 191 242 189 205 215 209 233 273 286 293 290 297 249 225 227 233 238
324 336 343 351 354 328 322 318 302 311 310 316 273 72 261 317 284 267 313 342 341 2 341 20 300 290 255 193 223 213 208 208 218 233 279 292 283 283 279 265 234 233 232
318 349 348 350 354 340 321 300 299 308 313 340 347 324 300 356 21 359 308 353 328 318 339 9 10 337 289 197 191 221 204 191 195 211 269 277 279 276 281 276 257 250 261
336 349 353 355 357 347 331 319 315 305 311 353 344 348 4 292 297 337 336 345 12 324 351 13 24 18 9 40 319 200 206 190 176 180 252 273 270 262 260 260 255 242 227
322 329 341 355 359 0 355 2 8 357 355 354 350 334 342 305 299 337 310 351 9 10 358 318 359 23 10 22 30 332 267 181 183 187 217 267 279 278 138 126 110 107 110
336 349 346 344 340 2 359 2 8 8 13 6 5 328 317 318 335 347 87 67 123 352 357 340 5 2 7 5 32 23 352 349 261 187 178 233 291 234 146 128 114 120 116
339 338 348 350 340 349 17 11 8 1 9 7 4 3 11 331 341 323 351 165 166 168 290 40 358 12 353 344 359 20 352 3 6 336 206 212 233 231 190 162 142 127 89
343 344 344 346 349 338 3 22 9 12 -0 1 0 3 357 349 332 316 320 303 211 238 223 301 336 292 254 349 331 339 356 328 342 359 333 211 221 220 198 174 147 133 123
339 338 341 344 347 347 337 31 13 25 11 7 6 1 356 346 325 343 249 265 241 190 186 237 266 296 248 300 280 308 325 306 325 330 345 265 214 215 202 175 167 156 150
339 339 349 344 346 344 333 1 30 10 11 5 1 357 353 10 343 313 303 279 254 249 211 200 244 217 252 292 316 311 254 277 283 308 325 338 233 228 221 195 179 174 167
337 340 338 329 334 332 334 20 3 5 4 353 352 350 349 8 344 2 326 240 229 254 272 265 330 359 339 328 304 278 299 318 302 302 316 299 311 236 219 220 207 191 191
320 332 339 346 338 336 61 60 22 15 7 355 352 353 359 21 16 19 40 32 14 261 247 236 239 207 213 330 347 321 289 299 302 302 313 302 319 318 238 233 226 229 204
333 321 329 333 337 344 40 44 45 18 8 359 346 343 336 17 16 23 29 35 16 62 32 341 28 292 13 283 247 254 271 294 295 168 316 303 350 312 327 322 241 229 228
340 340 338 331 335 335 15 40 43 16 17 354 346 335 342 346 12 7 26 37 28 18 50 58 312 258 241 242 231 281 228 219 243 253 160 265 316 292 293 313 307 292 266
344 338 344 350 343 343 358 23 30 9 4 348 335 333 317 331 313 40 17 14 0 333 335 25 257 264 232 233 220 224 223 243 275 260 186 243 190 232 250 258 283 284 275
345 347 347 355 357 343 354 14 34 358 352 334 330 325 326 309 5 51 41 358 347 328 324 322 320 321 327 328 326 41 285 253 255 261 219 228 254 277 222 240 244 261 261
342 354 351 355 358 335 342 15 35 349 348 333 328 322 340 349 19 16 101 17 334 312 324 349 342 328 309 300 315 117 294 286 282 264 229 213 229 193 294 217 269 264 267